User: anonymous   Login
Location: Starry Hill Observatory
(46.8582°N, 122.3590°W)
Time: 06:14:43
(UTC-07:00)
Language:

Cosmos 1300 Rocket - Orbit

View from above orbital plane
View from above orbital plane
View from above satellite
View from above satellite

Ground track
Ground track

The orbit data is extracted from the following two-line orbital elements,

1 12786U 81082B   15143.58157897  .00000275  00000-0  29789-4 0  9990
2 12786 082.4872 319.7597 0016557 225.2983 134.6885 14.84461357822700
Epoch (UTC): 23 May 2015 13:57:28
Eccentricity: 0.0016557
inclination: 82.4872°
perigee height: 604 km
apogee height: 627 km
right ascension of ascending node: 319.7597°
argument of perigee: 225.2983°
revolutions per day: 14.84461357
mean anomaly at epoch: 134.6885°
orbit number at epoch: 82270

The dashed part of the orbit path shows where the satellite is in the earth's shadow,  

DLR